ピーターズ-ハートレー彗星

80P/Peters-Hartley (2022)

English version
Home page
Updated on August 27, 2023

---------------------------------------------------------------------

・ プロフィール

・ 写真集

・ 軌道要素

Epoch 2023 Feb. 25.0 TT = JDT 2460000.5                                         
T 2022 Dec. 8.84911 TT                                  Rudenko                 
q   1.6153260            (2000.0)            P               Q                  
n   0.12214133     Peri.  339.24315     -0.46795180     +0.73483601             
a   4.0231012      Node   259.79618     -0.72411473     -0.63728738             
e   0.5984874      Incl.   29.92363     -0.50663495     +0.23212244             
P   8.07                                                                        
>From 25 observations 1998 Feb. 16-2023 Mar. 15, mean residual 0".5.             
     Nongravitational parameters A1 = +0.47, A2 = -0.0319.                      

・ 光度変化

        m1 = 9.0 + 5 logΔ + 18.0 log r

---------------------------------------------------------------------

軌道要素はM.P.E.C. 2023-F81に掲載されたものです。
光度グラフはComet for Windowsで作成したものです。

---------------------------------------------------------------------

Copyright(C) Seiichi Yoshida (comet@aerith.net). All rights reserved.